X22 KJFK-KMIA

Flight info

Callsign X22
Flight time 1h 42m
Altitude 40000
Route WAVEY EMJAY Q167 KALDA Q101 SKARP Y313 HOAGG BNFSH2
Aircraft F22/M-SDGHITUY/LB1

Departure

Time 2026-04-30 20:49
Airport John F. Kennedy International Airport (KJFK)

Arrival

Time 2026-04-30 22:31
Airport Miami International Airport (KMIA)
Time Latitude Longitude Altitude Speed Heading
2026-04-30 20:12 40.63954 -73.78072 17 ft 0 kts 263°
2026-04-30 20:33 40.63954 -73.78073 17 ft 0 kts 263°
2026-04-30 20:33 40.63955 -73.78060 17 ft 2 kts 263°
2026-04-30 20:34 40.63959 -73.78019 17 ft 2 kts 263°
2026-04-30 20:34 40.63967 -73.78002 17 ft 0 kts 171°
2026-04-30 20:38 40.63957 -73.77983 17 ft 11 kts 113°
2026-04-30 20:38 40.63962 -73.77891 17 ft 7 kts 82°
2026-04-30 20:38 40.63925 -73.77822 17 ft 9 kts 147°
2026-04-30 20:39 40.63843 -73.77748 17 ft 12 kts 145°
2026-04-30 20:39 40.63797 -73.77707 17 ft 10 kts 145°
2026-04-30 20:39 40.63779 -73.77687 17 ft 9 kts 130°
2026-04-30 20:40 40.63683 -73.77671 17 ft 8 kts 143°
2026-04-30 20:40 40.63666 -73.77643 17 ft 0 kts 126°
2026-04-30 20:40 40.63663 -73.77592 17 ft 13 kts 53°
2026-04-30 20:41 40.63879 -73.77417 17 ft 17 kts 31°
2026-04-30 20:41 40.63963 -73.77351 17 ft 8 kts 31°
2026-04-30 20:41 40.64023 -73.77304 17 ft 13 kts 31°
2026-04-30 20:41 40.64124 -73.77225 18 ft 19 kts 31°
2026-04-30 20:42 40.64245 -73.77130 17 ft 22 kts 31°
2026-04-30 20:42 40.64330 -73.77063 17 ft 15 kts 31°
2026-04-30 20:42 40.64491 -73.76988 17 ft 10 kts
2026-04-30 20:43 40.64565 -73.76947 17 ft 13 kts 31°
2026-04-30 20:43 40.64626 -73.76899 17 ft 1 kts 28°
2026-04-30 20:43 40.64690 -73.76854 17 ft 18 kts 32°
2026-04-30 20:44 40.64896 -73.76684 18 ft 19 kts 30°
2026-04-30 20:44 40.64918 -73.76579 18 ft 2 kts 120°
2026-04-30 20:46 40.64894 -73.76530 18 ft 13 kts 131°
2026-04-30 20:46 40.64820 -73.76514 18 ft 0 kts 212°
2026-04-30 20:48 40.64666 -73.76637 16 ft 74 kts 211°
2026-04-30 20:48 40.63969 -73.77188 18 ft 171 kts 211°
2026-04-30 20:48 40.62718 -73.78207 430 ft 239 kts 212°
2026-04-30 20:49 40.61231 -73.79381 1308 ft 244 kts 209°
2026-04-30 20:49 40.59684 -73.80119 2155 ft 228 kts 184°
2026-04-30 20:49 40.58220 -73.79732 2799 ft 220 kts 147°
2026-04-30 20:50 40.56497 -73.76272 2958 ft 274 kts 114°
2026-04-30 20:50 40.55757 -73.73990 2479 ft 264 kts 112°
2026-04-30 20:50 40.55024 -73.71743 2622 ft 269 kts 122°
2026-04-30 20:50 40.53677 -73.70084 2647 ft 268 kts 144°
2026-04-30 20:51 40.52183 -73.68621 2681 ft 268 kts 143°
2026-04-30 20:51 40.49218 -73.65653 2690 ft 268 kts 143°
2026-04-30 20:51 40.47731 -73.64170 2699 ft 270 kts 144°
2026-04-30 20:52 40.46244 -73.62693 2698 ft 270 kts 144°
2026-04-30 20:52 40.44749 -73.61210 3006 ft 269 kts 144°
2026-04-30 20:52 40.41751 -73.58228 4027 ft 274 kts 144°
2026-04-30 20:53 40.40225 -73.56712 4547 ft 276 kts 144°
2026-04-30 20:53 40.38687 -73.55185 5052 ft 279 kts 145°
2026-04-30 20:53 40.37132 -73.53642 5557 ft 283 kts 145°
2026-04-30 20:54 40.33969 -73.50507 6583 ft 287 kts 146°
2026-04-30 20:54 40.32391 -73.48945 7072 ft 289 kts 146°
2026-04-30 20:54 40.30787 -73.47357 7571 ft 291 kts 146°
2026-04-30 20:55 40.27527 -73.44133 8604 ft 296 kts 147°
2026-04-30 20:55 40.25878 -73.42503 9131 ft 298 kts 147°
2026-04-30 20:55 40.24217 -73.40861 9663 ft 300 kts 147°
2026-04-30 20:56 40.20869 -73.37557 10640 ft 303 kts 148°
2026-04-30 20:56 40.19184 -73.35895 11137 ft 304 kts 148°
2026-04-30 20:56 40.15793 -73.32555 12154 ft 306 kts 149°
2026-04-30 20:57 40.14085 -73.30875 12680 ft 308 kts 149°
2026-04-30 20:57 40.12360 -73.29221 13166 ft 305 kts 158°
2026-04-30 20:57 40.10427 -73.28687 13707 ft 279 kts 193°
2026-04-30 20:58 40.06745 -73.30007 14751 ft 274 kts 213°
2026-04-30 20:58 40.05643 -73.30823 15099 ft 275 kts 216°
2026-04-30 20:58 40.04038 -73.32175 15599 ft 277 kts 218°
2026-04-30 20:58 40.02452 -73.33616 16106 ft 278 kts 221°
2026-04-30 20:59 39.99480 -73.36858 17144 ft 281 kts 225°
2026-04-30 20:59 39.97993 -73.38536 17678 ft 284 kts 224°
2026-04-30 21:00 39.94897 -73.41927 18711 ft 346 kts 223°
2026-04-30 21:00 39.90039 -73.47218 19845 ft 537 kts 221°
2026-04-30 21:01 39.84282 -73.53447 20868 ft 538 kts 222°
2026-04-30 21:01 39.81417 -73.56569 21377 ft 538 kts 222°
2026-04-30 21:01 39.75495 -73.62985 22433 ft 555 kts 222°
2026-04-30 21:02 39.72524 -73.66196 22969 ft 555 kts 222°
2026-04-30 21:02 39.69567 -73.69396 23498 ft 553 kts 222°
2026-04-30 21:02 39.66616 -73.72581 23958 ft 551 kts 222°
2026-04-30 21:02 39.63672 -73.75754 24418 ft 549 kts 222°
2026-04-30 21:03 39.60738 -73.78914 24893 ft 547 kts 222°
2026-04-30 21:03 39.57809 -73.82063 25371 ft 546 kts 222°
2026-04-30 21:03 39.54892 -73.85198 25859 ft 544 kts 222°
2026-04-30 21:03 39.51985 -73.88315 26356 ft 542 kts 222°
2026-04-30 21:04 39.49085 -73.91424 26860 ft 540 kts 222°
2026-04-30 21:04 39.46193 -73.94520 27376 ft 538 kts 222°
2026-04-30 21:04 39.40439 -74.00669 28455 ft 534 kts 221°
2026-04-30 21:05 39.37575 -74.03727 29004 ft 532 kts 221°
2026-04-30 21:05 39.34718 -74.06768 29543 ft 531 kts 221°
2026-04-30 21:05 39.31875 -74.09794 30077 ft 529 kts 221°
2026-04-30 21:05 39.29037 -74.12812 30561 ft 528 kts 221°
2026-04-30 21:06 39.26204 -74.15823 31056 ft 527 kts 221°
2026-04-30 21:06 39.23371 -74.18828 31559 ft 526 kts 221°
2026-04-30 21:06 39.20548 -74.21819 32067 ft 525 kts 221°
2026-04-30 21:06 39.17729 -74.24805 32591 ft 524 kts 221°
2026-04-30 21:07 39.14955 -74.27737 33080 ft 522 kts 221°
2026-04-30 21:07 39.12163 -74.30687 33621 ft 521 kts 221°
2026-04-30 21:07 39.09329 -74.33679 34122 ft 519 kts 221°
2026-04-30 21:07 39.06545 -74.36613 34605 ft 514 kts 222°
2026-04-30 21:08 39.03812 -74.39491 35078 ft 515 kts 222°
2026-04-30 21:08 39.01030 -74.42419 35550 ft 524 kts 222°
2026-04-30 21:08 38.98147 -74.45456 35804 ft 554 kts 222°
2026-04-30 21:08 38.95074 -74.48682 35942 ft 589 kts 221°
2026-04-30 21:09 38.91787 -74.52127 35974 ft 631 kts 221°
2026-04-30 21:09 38.88286 -74.55789 35984 ft 657 kts 221°
2026-04-30 21:09 38.81169 -74.63222 36023 ft 661 kts 221°
2026-04-30 21:10 38.74121 -74.70802 36024 ft 661 kts 223°
2026-04-30 21:10 38.67230 -74.78597 36039 ft 661 kts 224°
2026-04-30 21:11 38.60465 -74.86555 36043 ft 660 kts 226°
2026-04-30 21:11 38.53899 -74.94754 36040 ft 660 kts 227°
2026-04-30 21:12 38.47808 -75.03470 36068 ft 657 kts 234°
2026-04-30 21:12 38.44742 -75.07757 36094 ft 659 kts 219°
2026-04-30 21:12 38.40742 -75.10705 36162 ft 670 kts 209°
2026-04-30 21:13 38.32373 -75.15998 36094 ft 670 kts 213°
2026-04-30 21:13 38.24397 -75.22113 36074 ft 668 kts 216°
2026-04-30 21:14 38.17119 -75.29312 36049 ft 655 kts 222°
2026-04-30 21:14 38.09979 -75.36529 36041 ft 662 kts 222°
2026-04-30 21:15 38.02784 -75.43853 36062 ft 664 kts 222°
2026-04-30 21:15 37.95527 -75.51153 36043 ft 702 kts 222°
2026-04-30 21:16 37.91591 -75.55115 36053 ft 742 kts 222°
2026-04-30 21:16 37.87378 -75.59197 36054 ft 783 kts 219°
2026-04-30 21:16 37.82737 -75.63107 36058 ft 819 kts 216°
2026-04-30 21:16 37.77813 -75.66983 36056 ft 847 kts 215°
2026-04-30 21:17 37.72738 -75.70948 36037 ft 862 kts 215°
2026-04-30 21:17 37.67632 -75.74966 36048 ft 866 kts 216°
2026-04-30 21:17 37.56859 -75.81733 36122 ft 884 kts 198°
2026-04-30 21:18 37.44730 -75.84893 36096 ft 893 kts 195°
2026-04-30 21:18 37.32599 -75.88172 36013 ft 878 kts 198°
2026-04-30 21:19 37.20636 -75.91756 36043 ft 890 kts 198°
2026-04-30 21:19 37.14667 -75.93586 36528 ft 886 kts 198°
2026-04-30 21:19 37.08715 -75.95552 37003 ft 883 kts 204°
2026-04-30 21:20 37.02969 -75.98205 37562 ft 881 kts 205°
2026-04-30 21:20 36.97153 -76.00686 38110 ft 883 kts 203°
2026-04-30 21:20 36.91353 -76.03181 38633 ft 882 kts 204°
2026-04-30 21:20 36.85597 -76.05670 39029 ft 865 kts 204°
2026-04-30 21:21 36.79958 -76.08098 39479 ft 870 kts 204°
2026-04-30 21:21 36.74154 -76.10592 39794 ft 872 kts 204°
2026-04-30 21:21 36.62688 -76.15504 39976 ft 882 kts 204°
2026-04-30 21:22 36.56871 -76.17989 40021 ft 885 kts 204°
2026-04-30 21:22 36.39433 -76.25412 40035 ft 873 kts 204°
2026-04-30 21:23 36.33649 -76.27880 40056 ft 881 kts 204°
2026-04-30 21:23 36.16237 -76.35239 40051 ft 877 kts 204°
2026-04-30 21:24 36.04607 -76.40150 40086 ft 886 kts 204°
2026-04-30 21:24 35.92970 -76.45037 40059 ft 879 kts 204°
2026-04-30 21:25 35.75507 -76.52351 40070 ft 885 kts 204°
2026-04-30 21:26 35.57965 -76.59663 40059 ft 890 kts 204°
2026-04-30 21:27 35.40422 -76.66947 40057 ft 889 kts 204°
2026-04-30 21:27 35.28672 -76.71797 40066 ft 893 kts 204°
2026-04-30 21:28 35.10996 -76.79074 40076 ft 890 kts 204°
2026-04-30 21:29 34.93439 -76.86268 40064 ft 892 kts 204°
2026-04-30 21:30 34.64122 -76.98210 40086 ft 897 kts 204°
2026-04-30 21:31 34.34558 -77.10161 40070 ft 899 kts 204°
2026-04-30 21:32 34.16810 -77.17293 40059 ft 899 kts 204°
2026-04-30 21:32 34.04921 -77.22053 40009 ft 890 kts 204°
2026-04-30 21:33 33.87139 -77.29148 40056 ft 901 kts 204°
2026-04-30 21:34 33.75287 -77.33858 40036 ft 898 kts 204°
2026-04-30 21:34 33.57437 -77.40925 40057 ft 903 kts 204°
2026-04-30 21:35 33.45566 -77.45612 40039 ft 901 kts 204°
2026-04-30 21:35 33.33623 -77.50308 40045 ft 904 kts 204°
2026-04-30 21:36 33.21736 -77.54975 40041 ft 902 kts 203°
2026-04-30 21:37 32.97911 -77.64281 40032 ft 901 kts 203°
2026-04-30 21:37 32.85975 -77.68920 40045 ft 903 kts 203°
2026-04-30 21:38 32.74027 -77.73554 40044 ft 904 kts 203°
2026-04-30 21:38 32.62069 -77.78180 40042 ft 904 kts 203°
2026-04-30 21:39 32.50271 -77.82727 40024 ft 892 kts 203°
2026-04-30 21:39 32.38398 -77.87296 40042 ft 900 kts 203°
2026-04-30 21:40 32.26537 -77.91840 40013 ft 885 kts 203°
2026-04-30 21:40 32.14703 -77.96372 40060 ft 903 kts 202°
2026-04-30 21:41 32.08693 -77.98667 40058 ft 914 kts 202°
2026-04-30 21:41 32.02610 -78.00986 40013 ft 923 kts 202°
2026-04-30 21:41 31.90279 -78.05677 40051 ft 939 kts 202°
2026-04-30 21:42 31.77789 -78.10412 40026 ft 951 kts 202°
2026-04-30 21:42 31.65155 -78.15189 40055 ft 960 kts 202°
2026-04-30 21:43 31.54545 -78.19191 40062 ft 967 kts 202°
2026-04-30 21:43 31.39522 -78.24844 40058 ft 974 kts 202°
2026-04-30 21:44 31.26581 -78.29695 40066 ft 979 kts 202°
2026-04-30 21:44 31.13579 -78.34555 40061 ft 983 kts 202°
2026-04-30 21:45 31.00528 -78.39419 40068 ft 986 kts 202°
2026-04-30 21:45 30.89646 -78.43465 40063 ft 989 kts 202°
2026-04-30 21:46 30.74402 -78.49120 40082 ft 992 kts 202°
2026-04-30 21:46 30.63369 -78.53198 40068 ft 994 kts 202°
2026-04-30 21:47 30.50166 -78.58067 40078 ft 997 kts 202°
2026-04-30 21:47 30.36935 -78.62929 40078 ft 999 kts 202°
2026-04-30 21:48 30.23669 -78.67792 40088 ft 1000 kts 202°
2026-04-30 21:48 30.10385 -78.72649 40092 ft 1002 kts 202°
2026-04-30 21:49 29.97086 -78.77500 39374 ft 1012 kts 202°
2026-04-30 21:49 29.90345 -78.79948 38638 ft 1021 kts 201°
2026-04-30 21:49 29.83546 -78.82425 37835 ft 1029 kts 201°
2026-04-30 21:50 29.76696 -78.84879 37050 ft 1031 kts 202°
2026-04-30 21:50 29.69937 -78.87552 36299 ft 1027 kts 202°
2026-04-30 21:50 29.63198 -78.89991 35553 ft 1031 kts 201°
2026-04-30 21:50 29.56415 -78.92676 34851 ft 1030 kts 204°
2026-04-30 21:51 29.49611 -78.95317 34162 ft 1035 kts 199°
2026-04-30 21:51 29.42700 -78.97452 33426 ft 988 kts 201°
2026-04-30 21:51 29.36744 -78.99898 32656 ft 841 kts 205°
2026-04-30 21:51 29.31632 -79.02082 31923 ft 734 kts 202°
2026-04-30 21:52 29.26850 -79.03808 31208 ft 724 kts 202°
2026-04-30 21:52 29.22061 -79.05609 30506 ft 727 kts 203°
2026-04-30 21:52 29.17267 -79.07414 29787 ft 726 kts 203°
2026-04-30 21:52 29.12444 -79.09215 28990 ft 732 kts 202°
2026-04-30 21:53 29.07603 -79.11022 28182 ft 731 kts 202°
2026-04-30 21:53 29.02737 -79.12842 27434 ft 739 kts 202°
2026-04-30 21:53 28.97874 -79.14653 26698 ft 708 kts 202°
2026-04-30 21:53 28.93481 -79.16271 26024 ft 653 kts 203°
2026-04-30 21:54 28.89154 -79.17917 25343 ft 657 kts 203°
2026-04-30 21:54 28.84792 -79.19546 24721 ft 662 kts 202°
2026-04-30 21:54 28.80408 -79.21184 24389 ft 665 kts 202°
2026-04-30 21:54 28.76012 -79.22825 24245 ft 665 kts 202°
2026-04-30 21:55 28.71612 -79.24471 24175 ft 666 kts 202°
2026-04-30 21:55 28.67316 -79.26067 24133 ft 608 kts 202°
2026-04-30 21:55 28.63527 -79.27421 24095 ft 538 kts 202°
2026-04-30 21:55 28.59961 -79.28000 24083 ft 523 kts 179°
2026-04-30 21:56 28.56448 -79.26759 24141 ft 542 kts 153°
2026-04-30 21:56 28.53562 -79.23946 24189 ft 552 kts 134°
2026-04-30 21:56 28.51117 -79.20616 24169 ft 546 kts 130°
2026-04-30 21:56 28.48786 -79.17204 24147 ft 548 kts 129°
2026-04-30 21:57 28.46486 -79.13748 24132 ft 548 kts 128°
2026-04-30 21:57 28.44205 -79.10282 24126 ft 548 kts 128°
2026-04-30 21:57 28.41957 -79.06850 24118 ft 548 kts 128°
2026-04-30 21:57 28.39465 -79.03607 24103 ft 543 kts 145°
2026-04-30 21:58 28.36146 -79.01715 24147 ft 544 kts 171°
2026-04-30 21:58 28.32255 -79.01560 24208 ft 561 kts 195°
2026-04-30 21:58 28.28636 -79.03025 24233 ft 550 kts 210°
2026-04-30 21:58 28.25217 -79.04955 24199 ft 549 kts 211°
2026-04-30 21:59 28.21787 -79.06889 24142 ft 552 kts 210°
2026-04-30 21:59 28.18310 -79.08737 24129 ft 553 kts 208°
2026-04-30 21:59 28.14803 -79.10525 24121 ft 553 kts 208°
2026-04-30 22:00 28.07549 -79.13497 24118 ft 558 kts 201°
2026-04-30 22:00 28.00205 -79.16205 24117 ft 557 kts 202°
2026-04-30 22:00 27.96523 -79.17580 24116 ft 557 kts 202°
2026-04-30 22:01 27.92833 -79.18941 24105 ft 558 kts 202°
2026-04-30 22:01 27.89144 -79.20305 24109 ft 558 kts 202°
2026-04-30 22:01 27.85456 -79.21671 24113 ft 558 kts 202°
2026-04-30 22:01 27.81770 -79.23035 24114 ft 558 kts 202°
2026-04-30 22:02 27.78085 -79.24398 24114 ft 558 kts 202°
2026-04-30 22:02 27.74397 -79.25760 24117 ft 558 kts 202°
2026-04-30 22:02 27.70707 -79.27123 24118 ft 558 kts 202°
2026-04-30 22:02 27.67011 -79.28487 24112 ft 558 kts 202°
2026-04-30 22:03 27.63186 -79.29908 24119 ft 615 kts 201°
2026-04-30 22:03 27.59126 -79.31398 24128 ft 615 kts 201°
2026-04-30 22:03 27.55050 -79.32889 24125 ft 616 kts 201°
2026-04-30 22:03 27.50991 -79.34386 24122 ft 616 kts 201°
2026-04-30 22:04 27.46917 -79.35886 24118 ft 617 kts 201°
2026-04-30 22:04 27.42891 -79.37366 24118 ft 617 kts 201°
2026-04-30 22:04 27.34735 -79.40359 24117 ft 617 kts 201°
2026-04-30 22:05 27.30653 -79.41855 24119 ft 617 kts 201°
2026-04-30 22:05 27.26567 -79.43351 24117 ft 618 kts 201°
2026-04-30 22:05 27.22467 -79.44853 24117 ft 621 kts 201°
2026-04-30 22:05 27.18363 -79.46353 24120 ft 621 kts 201°
2026-04-30 22:06 27.14250 -79.47856 24120 ft 622 kts 201°
2026-04-30 22:06 27.06049 -79.50852 24109 ft 619 kts 201°
2026-04-30 22:06 27.01958 -79.52344 24114 ft 619 kts 200°
2026-04-30 22:07 26.97888 -79.53824 24116 ft 619 kts 200°
2026-04-30 22:07 26.93790 -79.55315 24118 ft 619 kts 200°
2026-04-30 22:07 26.89713 -79.56805 23583 ft 605 kts 200°
2026-04-30 22:07 26.85911 -79.58168 22800 ft 548 kts 201°
2026-04-30 22:08 26.82414 -79.59426 22019 ft 509 kts 201°
2026-04-30 22:08 26.79155 -79.60606 21262 ft 479 kts 201°
2026-04-30 22:08 26.76067 -79.61723 20515 ft 455 kts 201°
2026-04-30 22:08 26.73122 -79.62783 19798 ft 435 kts 202°
2026-04-30 22:09 26.70301 -79.63798 19101 ft 418 kts 202°
2026-04-30 22:09 26.67580 -79.64778 18422 ft 404 kts 202°
2026-04-30 22:09 26.64984 -79.65731 17685 ft 392 kts 202°
2026-04-30 22:09 26.62422 -79.66653 16915 ft 383 kts 202°
2026-04-30 22:10 26.59906 -79.67525 16165 ft 374 kts 201°
2026-04-30 22:10 26.57449 -79.68375 15435 ft 366 kts 201°
2026-04-30 22:10 26.55045 -79.69216 14719 ft 358 kts 201°
2026-04-30 22:10 26.52689 -79.70045 14029 ft 352 kts 201°
2026-04-30 22:11 26.48091 -79.71651 12519 ft 339 kts 206°
2026-04-30 22:11 26.46042 -79.72867 11812 ft 329 kts 217°
2026-04-30 22:11 26.44259 -79.74357 11431 ft 311 kts 224°
2026-04-30 22:12 26.42786 -79.75987 11244 ft 286 kts 231°
2026-04-30 22:12 26.41482 -79.77665 11175 ft 286 kts 232°
2026-04-30 22:12 26.40166 -79.79336 11149 ft 287 kts 231°
2026-04-30 22:12 26.38839 -79.81003 11136 ft 287 kts 232°
2026-04-30 22:13 26.37552 -79.82710 11131 ft 287 kts 237°
2026-04-30 22:13 26.36408 -79.84520 11129 ft 285 kts 240°
2026-04-30 22:13 26.35318 -79.86358 11127 ft 286 kts 240°
2026-04-30 22:13 26.34204 -79.88188 11123 ft 287 kts 238°
2026-04-30 22:14 26.33062 -79.89999 11120 ft 284 kts 238°
2026-04-30 22:14 26.31918 -79.91802 11117 ft 285 kts 238°
2026-04-30 22:14 26.30786 -79.93610 11109 ft 286 kts 239°
2026-04-30 22:14 26.29656 -79.95427 11111 ft 286 kts 238°
2026-04-30 22:15 26.28538 -79.97220 11108 ft 285 kts 238°
2026-04-30 22:15 26.27403 -79.99017 11110 ft 284 kts 237°
2026-04-30 22:15 26.26133 -80.00723 11102 ft 288 kts 226°
2026-04-30 22:15 26.24433 -80.01949 11122 ft 295 kts 208°
2026-04-30 22:16 26.22599 -80.02962 11105 ft 292 kts 224°
2026-04-30 22:16 26.21608 -80.04804 10664 ft 283 kts 262°
2026-04-30 22:17 26.20427 -80.11122 9321 ft 276 kts 256°
2026-04-30 22:17 26.19840 -80.13159 8808 ft 275 kts 252°
2026-04-30 22:17 26.18312 -80.17035 7821 ft 271 kts 246°
2026-04-30 22:18 26.17512 -80.18941 7333 ft 272 kts 247°
2026-04-30 22:18 26.15974 -80.22738 6398 ft 264 kts 248°
2026-04-30 22:19 26.14514 -80.26396 5447 ft 262 kts 247°
2026-04-30 22:19 26.13765 -80.28243 4957 ft 259 kts 247°
2026-04-30 22:19 26.11625 -80.31410 4013 ft 256 kts 225°
2026-04-30 22:20 26.10331 -80.32799 3548 ft 257 kts 227°
2026-04-30 22:20 26.07947 -80.35754 3196 ft 259 kts 233°
2026-04-30 22:20 26.06934 -80.37366 3155 ft 251 kts 246°
2026-04-30 22:21 26.06469 -80.39248 3149 ft 253 kts 263°
2026-04-30 22:21 26.06347 -80.41179 3141 ft 249 kts 269°
2026-04-30 22:21 26.06445 -80.43147 3141 ft 247 kts 276°
2026-04-30 22:21 26.06706 -80.45099 3116 ft 256 kts 278°
2026-04-30 22:22 26.06981 -80.47047 3126 ft 254 kts 276°
2026-04-30 22:22 26.07094 -80.49019 3116 ft 257 kts 268°
2026-04-30 22:22 26.06863 -80.50941 3119 ft 249 kts 256°
2026-04-30 22:22 26.06277 -80.52776 3092 ft 250 kts 244°
2026-04-30 22:23 26.05394 -80.54325 3077 ft 224 kts 233°
2026-04-30 22:23 26.04386 -80.55491 3045 ft 194 kts 221°
2026-04-30 22:23 26.03304 -80.56419 3067 ft 200 kts 216°
2026-04-30 22:23 26.02088 -80.57145 3105 ft 196 kts 204°
2026-04-30 22:24 26.00788 -80.57631 3110 ft 202 kts 197°
2026-04-30 22:24 25.99423 -80.57877 3091 ft 201 kts 186°
2026-04-30 22:24 25.98024 -80.57864 3105 ft 202 kts 178°
2026-04-30 22:24 25.96630 -80.57597 3116 ft 203 kts 165°
2026-04-30 22:25 25.95308 -80.57055 3150 ft 207 kts 160°
2026-04-30 22:25 25.94051 -80.56275 3133 ft 207 kts 144°
2026-04-30 22:25 25.92962 -80.55224 3141 ft 208 kts 134°
2026-04-30 22:25 25.92028 -80.53964 3145 ft 214 kts 127°
2026-04-30 22:26 25.90563 -80.51187 3125 ft 213 kts 121°
2026-04-30 22:26 25.89870 -80.49738 3123 ft 214 kts 122°
2026-04-30 22:26 25.89159 -80.48289 3100 ft 213 kts 123°
2026-04-30 22:27 25.88428 -80.46875 3087 ft 210 kts 124°
2026-04-30 22:27 25.87671 -80.45487 3085 ft 209 kts 123°
2026-04-30 22:27 25.86265 -80.42623 3081 ft 211 kts 121°
2026-04-30 22:28 25.84865 -80.39927 1326 ft 196 kts 124°
2026-04-30 22:28 25.84178 -80.38676 989 ft 188 kts 125°
2026-04-30 22:29 25.82289 -80.34754 878 ft 190 kts 122°
2026-04-30 22:29 25.81647 -80.33485 673 ft 188 kts 125°
2026-04-30 22:30 25.79373 -80.29145 15 ft 96 kts 120°
2026-04-30 22:31 25.78951 -80.28742 14 ft 26 kts 252°
2026-04-30 22:32 25.79122 -80.29092 14 ft 20 kts 229°
2026-04-30 22:32 25.79088 -80.29117 15 ft 0 kts 209°